Weather observations for the past three days for
Deadhorse, Deadhorse Airport
Imperial (Metric)
Date Time (akdt) Wind (mph) Vis. (mi.) Weather Sky Cond. Temperature (ºF) Relative Humidity Wind Chill (°F) Heat Index (°F) Pressure Precipitation (in)
Air Dwpt 6 hour altimeter (in) sea level (mb) 1 hr 3 hr 6 hr
Max. Min.
18 08:53 SW 8 10.00 A Few Clouds FEW080 57 46.9 69% 29.76 1007.9
18 07:53 W 9 10.00 Fair CLR 55 46.9 74% 29.76 1007.7
18 06:53 SW 10 10.00 Fair CLR 51.1 45 80% 29.75 1007.5
18 05:53 SW 10 10.00 Partly Cloudy FEW012 SCT190 48.9 45 86% 45 29.74 1007.2
18 04:53 SW 10 10.00 Partly Cloudy FEW080 SCT120 48 44.1 86% 44 29.73 1006.9
18 03:53 SW 8 10.00 Mostly Cloudy SCT080 BKN120 46.9 43 55 46.9 86% 44 29.73 1006.8
18 02:53 SW 9 10.00 Mostly Cloudy SCT060 BKN085 BKN120 50 46 86% 47 29.72 1006.5
18 01:53 SE 7 10.00 Mostly Cloudy BKN080 50 46 86% 48 29.71 1006.2
18 00:53 SE 9 10.00 Mostly Cloudy SCT080 BKN200 48 43 83% 44 29.71 1006.2
17 23:53 E 8 10.00 Mostly Cloudy FEW039 SCT085 BKN180 48 43 83% 45 29.71 1006.0
17 22:53 E 8 10.00 Partly Cloudy SCT022 SCT080 51.1 45 80% 29.71 1006.0
17 21:53 E 8 10.00 Partly Cloudy SCT019 SCT085 55.9 46.9 60.1 52 72% 29.71 1006.0
17 20:53 E 9 10.00 Fair CLR 59 48 67% 29.7 1005.8
17 19:53 E 8 10.00 Fair CLR 59 46.9 64% 29.71 1006.1
17 18:53 E 8 10.00 Fair CLR 57.9 46.9 67% 29.72 1006.5
17 17:53 NE 9 5.00 Mostly Cloudy with Haze SCT065 BKN080 BKN095 54 46 75% 29.73 1006.7
17 16:53 NE 9 10.00 Overcast BKN070 OVC090 53.1 44.1 72% 29.73 1006.9
17 15:53 N 12 10.00 Mostly Cloudy FEW060 BKN095 60.1 48 63 48.9 65% 29.73 1006.7
17 14:53 N 13 10.00 Mostly Cloudy SCT026 BKN065 61 48.9 65% 29.72 1006.5
17 13:53 NW 10 10.00 Mostly Cloudy SCT025 BKN110 61 48 63% 29.72 1006.6
17 12:53 W 9 10.00 Overcast FEW060 OVC110 60.8 44.6 55% 29.73 0.0
17 11:53 NW 3 7.00 Light Rain FEW046 BKN065 OVC080 57 45 64% 29.73 1006.8
17 10:53 S 3 10.00 Mostly Cloudy BKN080 55.9 45 67% 29.73 1007.0
17 09:53 Vrbl 5 10.00 A Few Clouds FEW060 48.9 43 48.9 36 80% 48 29.74 1007.1
17 08:53 Vrbl 6 10.00 Partly Cloudy SCT002 44.1 42.1 93% 41 29.75 1007.4
17 07:53 SE 5 1.00 Fog/Mist OVC002 41 39 93% 38 29.75 1007.6
17 06:53 E 8 1.00 Fog/Mist OVC002 39 37 93% 34 29.75 1007.4
17 05:53 E 9 0.25 Fog VV002 37 36 96% 31 29.76 1007.8
17 04:53 SE 5 0.25 Fog VV002 36 35.1 97% 33 29.78 1008.4
17 03:53 E 8 0.15 Fog VV002 37 35.1 39.9 37 93% 32 29.77 1008.2
17 02:53 E 9 0.25 Fog VV002 37 35.1 93% 31 29.77 1008.2
17 01:53 E 9 0.25 Fog VV002 37 35.1 93% 31 29.78 1008.5
17 00:53 E 12 0.50 Fog VV002 37.9 36 93% 31 29.79 1008.7
16 23:53 E 9 10.00 Overcast OVC003 39.9 37 89% 34 29.8 1009.1
16 22:53 E 10 4.00 Fog/Mist OVC002 37.9 36 93% 32 29.8 1009.3
16 21:53 E 13 10.00 Mostly Cloudy BKN001 BKN003 BKN034 39.9 36 45 37.9 86% 33 29.81 1009.7
16 20:53 E 14 5.00 Fog/Mist OVC003 37.9 35.1 89% 30 29.82 1009.9
16 19:53 E 14 10.00 Overcast OVC003 39 35.1 86% 32 29.81 1009.7
16 18:53 E 13 10.00 Overcast OVC004 39.9 36 86% 33 29.83 1010.3
16 17:53 E 13 10.00 Overcast OVC005 42.1 37 82% 36 29.84 1010.6
16 16:53 E 13 10.00 Mostly Cloudy BKN006 43 37 80% 37 29.85 1010.7
16 15:53 E 12 10.00 Overcast OVC010 44.1 37 48 43 76% 39 29.85 1011.0
16 14:53 NE 10 10.00 Fair CLR 46 37.9 73% 42 29.85 1010.8
16 13:53 N 10 10.00 Fair CLR 46.9 37.9 71% 43 29.85 1010.8
16 12:53 Vrbl 5 10.00 Fair CLR 46.9 37.9 71% 45 29.85 1010.9
16 11:53 Vrbl 5 10.00 Mostly Cloudy BKN013 46.9 37.9 71% 45 29.84 1010.6
16 10:53 Vrbl 3 10.00 Overcast OVC010 44.1 37.9 79% 29.84 1010.6
16 09:53 W 7 10.00 Overcast OVC013 43 36 44.1 41 76% 39 29.84 1010.4
16 08:53 NW 5 10.00 Mostly Cloudy BKN013 42.1 37 82% 40 29.83 1010.1
16 07:53 W 9 10.00 Mostly Cloudy BKN010 43 37 80% 38 29.81 1009.7
16 06:53 NW 7 10.00 Overcast OVC010 43 37.9 82% 39 29.8 1009.2
16 05:53 SW 6 10.00 Overcast OVC011 42.1 37.9 85% 39 29.79 1008.9
16 04:53 S 6 10.00 Overcast OVC011 41 37 86% 38 29.78 1008.6
16 03:53 Calm 10.00 Overcast OVC017 41 37.9 45 37 89% 29.77 1008.1
16 02:53 E 3 10.00 Partly Cloudy SCT035 37.9 35.1 89% 29.75 1007.5
16 01:53 E 6 10.00 A Few Clouds FEW012 FEW035 39 35.1 86% 35 29.73 1007.0
16 00:53 E 5 10.00 A Few Clouds FEW036 39.9 36 86% 37 29.73 1006.7
15 23:53 E 6 10.00 A Few Clouds FEW036 42.1 36 79% 39 29.71 1006.1
15 22:53 NE 8 10.00 Partly Cloudy SCT036 43 37 80% 39 29.7 1005.8
15 21:53 NE 8 10.00 Mostly Cloudy BKN030 45 37.9 53.1 44.1 77% 41 29.7 1005.7
15 20:53 NE 8 10.00 Fair CLR 46.9 39 74% 44 29.68 1005.2
15 19:53 E 8 10.00 Fair CLR 48 41 77% 45 29.67 1004.6
15 18:53 N 5 10.00 Overcast OVC120 51.1 42.1 71% 29.65 1004.2
15 17:53 N 9 10.00 Mostly Cloudy SCT085 BKN110 51.1 42.1 71% 29.64 1003.7
15 16:53 N 8 10.00 Mostly Cloudy SCT020 BKN075 51.1 41 69% 29.63 1003.4
15 15:53 N 10 10.00 Overcast FEW004 OVC019 51.1 42.1 55.9 48 71% 29.61 1002.6
15 14:53 W 16 10.00 Overcast FEW004 OVC017 55.9 45 67% 29.58 1001.9
15 13:53 W 16 10.00 Overcast FEW004 OVC016 54 45 72% 29.58 1001.6
15 12:53 W 13 10.00 Overcast FEW004 OVC015 53.1 45 74% 29.57 1001.4
15 11:53 W 13 10.00 Overcast FEW004 OVC011 51.1 44.1 77% 29.57 1001.3
15 10:53 W 14 10.00 Overcast FEW004 OVC011 50 43 77% 45 29.56 1001.2
15 09:53 SW 10 10.00 Overcast FEW004 OVC010 48 42.1 48.9 37 80% 44 29.56 1001.2
Date Time (akdt) Wind (mph) Vis. (mi.) Weather Sky Cond. Air Dwpt Max. Min. Relative Humidity Wind Chill (°F) Heat Index (°F) altimeter (in) sea level (mb) 1 hr 3 hr 6 hr
6 hour
Temperature (ºF) Pressure Precipitation (in)